[[{"header":{"parameterUnit":"m.s-1","parameterCategory":1,"la1":30.2991,"la2":30.254,"lo1":-89.0895,"lo2":-89.0444,"dy":0.0017,"dx":0.0017,"nx":28,"ny":28,"refTime":"2025-05-21T21:00:00:Z","depth":0,"parameterNumber":2,"parameterNumberName":"U-component_of_WINDS"},"data":[0,0,0,0,0,0,0,0,0,0,0,0,0,0,0,0,0,0,0,0,0,0,0,0,0,0,0,0,0,0,0,0,0,0,0,0,0,0,0,0,0,0,0,0,0,0,0,0,0,0,0,0,0,0,0,0,0,0,2.3878,2.3879,0,2.3929,2.3929,2.393,2.3902,2.3901,2.3899,2.3898,2.3952,2.3955,2.3957,0,0,0,0,0,0,0,0,0,0,0,0,0,2.376,2.3762,2.3878,2.3879,2.3879,2.3928,2.3929,2.393,2.3902,2.39,2.3899,2.3897,2.3951,2.3954,2.3958,0,0,0,0,0,0,0,0,0,0,0,0,0,2.3811,2.3763,2.3878,2.3871,2.3871,2.3928,2.3929,2.393,2.3903,2.39,2.3898,2.3896,2.395,2.3954,2.3958,2.4025,0,0,2.3971,2.3972,0,0,0,0,0,0,0,0,2.3808,2.3815,2.3872,2.3872,2.3872,2.3907,2.3907,2.3962,2.3903,2.3891,2.3898,2.3895,2.3939,2.3944,2.3958,2.4028,2.403,2.3971,2.3973,2.3975,2.3976,0,0,0,0,0,0,0,2.3805,2.3813,2.3898,2.3873,2.3873,2.3867,2.3872,2.3918,2.3926,2.3892,2.389,2.3896,2.3938,2.3954,2.3959,2.4031,2.3971,2.3974,2.3977,2.3979,2.4158,2.416,0,0,0,0,0,0,2.3801,2.381,2.3897,2.39,2.3834,2.387,2.3876,2.3898,2.3925,2.3928,2.3898,2.3895,2.3948,2.3954,2.3961,2.4041,2.3975,2.3979,2.3981,2.4156,2.4158,2.4161,0,0,0,0,0,0,2.3799,2.3809,2.3894,2.3854,2.3865,2.3875,2.3899,2.39,2.3915,2.393,2.3931,2.3912,2.3947,2.3955,2.4009,2.4042,2.3981,2.3985,2.4153,2.4156,2.416,2.4202,0,0,0,0,0,0,2.3796,2.3808,2.3834,2.3855,2.3867,2.3942,2.3901,2.3902,2.3922,2.3918,2.3944,2.3946,2.3946,2.4003,2.4013,2.4047,2.3988,2.415,2.4154,2.4158,2.4197,2.4206,2.4213,0,0,0,0,0,2.3791,2.3844,2.3835,2.3846,2.3899,2.3944,2.395,2.3948,2.3925,2.395,2.396,2.3945,2.4037,2.4009,2.402,2.4055,2.4148,2.4153,2.4158,2.4194,2.4204,2.4213,0,0,0,0,0,0,2.3827,2.3847,2.3837,2.3898,2.3919,2.3939,2.3971,2.396,2.3989,2.3984,2.3981,2.3987,2.4043,2.4055,2.4023,2.4121,2.4089,2.4096,2.4112,2.4122,2.413,2.4126,2.3991,0,0,0,0,0,2.3842,2.3876,2.3892,2.3944,2.3955,2.3961,2.3981,2.3977,2.3999,2.4009,2.4022,2.4045,2.4078,2.4101,2.4133,2.4199,2.4204,2.4228,2.4237,2.4243,2.425,2.4285,2.4296,2.4178,2.4178,2.4178,0,0,2.3873,2.3888,2.391,2.3952,2.3968,2.4004,2.3969,2.4009,2.4036,2.4015,2.4066,2.4077,2.4102,2.4162,2.4189,2.4173,2.4284,2.425,2.4255,2.4258,2.4292,2.4303,2.4313,2.4181,2.4181,2.418,0,0,2.3949,2.3963,2.4008,2.4025,2.4049,2.4053,2.4064,2.4085,2.4091,2.4142,2.4127,2.4159,2.4218,2.4236,2.4253,2.4335,2.4322,2.4346,2.4388,2.4423,2.4432,2.444,2.4469,2.448,2.4352,2.4352,2.4353,0,2.3985,2.4038,2.4033,2.4074,2.4093,2.4074,2.412,2.4137,2.4171,2.4184,2.4166,2.4238,2.4254,2.4318,2.4338,2.4352,2.4365,2.4343,2.4431,2.4439,2.4447,2.4474,2.4485,2.4355,2.4355,2.4355,2.4354,0,2.4081,2.4118,2.4151,2.4183,2.4206,2.4249,2.4252,2.4275,2.427,2.4275,2.4328,2.4346,2.4381,2.4396,2.4392,2.446,2.4449,2.4431,2.4398,2.4461,2.4487,2.4497,2.4359,2.4358,2.4357,2.4357,0,0,2.4181,2.4209,2.4222,2.4236,2.4261,2.429,2.4332,2.4365,2.4385,2.4409,2.4445,2.4495,2.4478,2.4497,2.4494,2.4525,2.4588,2.4503,2.4503,2.4518,2.4664,2.4677,2.4689,2.4579,2.4581,2.4583,2.4661,0,2.4258,2.4331,2.4328,2.4396,2.443,2.4413,2.445,2.447,2.4476,2.4507,2.4514,2.4549,2.4524,2.4536,2.4565,2.4574,2.4617,2.4568,2.4613,2.4615,2.4607,2.4703,2.4717,2.479,2.4672,2.4673,2.4674,0,2.4357,2.4383,2.4455,2.4474,2.4489,2.4522,2.4552,2.4581,2.4603,2.4606,2.4627,2.4619,2.4662,2.4628,2.4688,2.4655,2.4673,2.468,2.4683,2.4687,2.4648,2.471,2.4814,2.4825,2.469,2.4689,2.4688,0,2.4423,2.4476,2.4526,2.4538,2.4562,2.4586,2.4597,2.4617,2.4637,2.4664,2.4677,2.4708,2.4726,2.4751,2.4752,2.4727,2.4812,2.4778,2.4816,2.4816,2.4835,2.4834,2.4943,2.4847,2.4846,2.4846,2.4846,0,2.4509,2.4554,2.4555,2.4586,2.4635,2.4631,2.468,2.4689,2.4707,2.4739,2.4727,2.4758,2.4757,2.4789,2.479,2.4839,2.4847,2.4851,2.4851,2.4852,2.4851,2.4864,2.4859,2.4849,2.4848,2.4848,2.4847,0,2.4591,2.4594,2.4646,2.4664,2.467,2.4705,2.4721,2.475,2.4755,2.4796,2.4806,2.4814,2.485,2.4854,2.4896,2.4897,2.4956,2.4951,2.4948,2.4947,2.4985,2.4981,2.5106,2.5122,2.5015,2.5016,2.5017,0,2.4646,2.4679,2.47,2.4721,2.4733,2.4766,2.4786,2.4784,2.4805,2.4833,2.4859,2.4893,2.4921,2.498,2.499,2.5022,2.5017,2.5059,2.5022,2.5022,2.5018,2.5016,2.5019,2.5066,2.5067,2.5068,2.5069,0,2.4743,2.4742,2.4771,2.4801,2.4825,2.4848,2.487,2.4888,2.4888,2.4913,2.4949,2.4971,2.5013,2.5048,2.508,2.5092,2.5081,2.508,2.5091,2.5092,2.5089,2.5091,2.4968,2.5078,2.5077,2.5076,2.5076,2.5075,2.4812,2.4841,2.486,2.4893,2.4909,2.493,2.4958,2.4966,2.4996,2.5029,2.5027,2.5067,2.5088,2.5129,2.5143,2.5175,2.5161,2.5176,2.518,2.5184,2.5187,2.5084,2.5181,2.518,2.518,2.518,2.518,0,2.4908,2.492,2.495,2.498,2.5006,2.4992,2.5015,2.5038,2.5073,2.5093,2.512,2.5162,2.5196,2.5208,2.5241,2.5264,2.5259,2.5272,2.5271,2.5273,2.5198,2.5186,2.5275,2.5275,2.5275,2.5275,2.5275,2.5275,2.4961,2.5009,2.5011,2.5067,2.5078,2.5116,2.5131,2.515,2.5166,2.5212,2.524,2.5247,2.5264,2.5298,2.5328,2.5331,2.5343,2.5359,2.5359,2.5289,2.5279,2.527,2.5258,2.5361,2.5361,2.5432,2.5433,2.5433]},{"header":{"parameterUnit":"m.s-1","parameterCategory":1,"la1":30.2991,"la2":30.254,"lo1":-89.0895,"lo2":-89.0444,"dy":0.0017,"dx":0.0017,"nx":28,"ny":28,"refTime":"2025-05-21T21:00:00:Z","depth":0,"parameterNumber":3,"parameterNumberName":"V-component_of_WINDS"},"data":[0,0,0,0,0,0,0,0,0,0,0,0,0,0,0,0,0,0,0,0,0,0,0,0,0,0,0,0,0,0,0,0,0,0,0,0,0,0,0,0,0,0,0,0,0,0,0,0,0,0,0,0,0,0,0,0,0,0,0.6558,0.6558,0,0.6528,0.6528,0.6528,0.6501,0.65,0.65,0.65,0.6468,0.6468,0.6467,0,0,0,0,0,0,0,0,0,0,0,0,0,0.6589,0.6589,0.6558,0.6558,0.6557,0.6529,0.6528,0.6528,0.6501,0.65,0.65,0.65,0.6469,0.6468,0.6467,0,0,0,0,0,0,0,0,0,0,0,0,0,0.6569,0.6588,0.6558,0.654,0.6538,0.6529,0.6528,0.6528,0.6501,0.65,0.65,0.6499,0.6469,0.6468,0.6467,0.6472,0,0,0.6465,0.6465,0,0,0,0,0,0,0,0,0.657,0.6568,0.6543,0.6542,0.6539,0.6518,0.6528,0.6509,0.6501,0.6515,0.65,0.6499,0.6485,0.6483,0.6479,0.6471,0.6469,0.6465,0.6464,0.6464,0.6464,0,0,0,0,0,0,0,0.6572,0.6569,0.6546,0.6543,0.6541,0.6533,0.653,0.6524,0.6503,0.6514,0.6512,0.6509,0.6484,0.6479,0.6478,0.6469,0.6465,0.6464,0.6464,0.6463,0.6462,0.6463,0,0,0,0,0,0,0.6576,0.657,0.6547,0.6545,0.6554,0.6533,0.6529,0.6525,0.6503,0.6499,0.6509,0.6508,0.6481,0.6479,0.6476,0.648,0.6464,0.6463,0.6463,0.6462,0.6462,0.6463,0,0,0,0,0,0,0.6577,0.6574,0.6548,0.6557,0.6553,0.6533,0.6529,0.6525,0.652,0.65,0.6496,0.6508,0.6481,0.6478,0.6473,0.6479,0.6463,0.6462,0.6461,0.6462,0.6463,0.6488,0,0,0,0,0,0,0.6578,0.6575,0.6577,0.6558,0.6553,0.6546,0.6529,0.6525,0.6519,0.6517,0.6498,0.6494,0.648,0.6475,0.6473,0.6477,0.6462,0.6461,0.6462,0.6462,0.6487,0.6489,0.6492,0,0,0,0,0,0.6579,0.6585,0.6577,0.6574,0.6556,0.6547,0.6544,0.6528,0.652,0.6521,0.6508,0.6495,0.6478,0.6474,0.6472,0.6476,0.646,0.6461,0.6462,0.6485,0.6489,0.6492,0,0,0,0,0,0,0.6606,0.6582,0.6573,0.6573,0.6562,0.6542,0.6544,0.6532,0.6523,0.6521,0.6501,0.6497,0.6494,0.6485,0.6481,0.6479,0.6467,0.6468,0.6486,0.6489,0.6492,0.6494,0.6461,0,0,0,0,0,0.6611,0.6607,0.6587,0.6589,0.6584,0.6565,0.656,0.6549,0.6536,0.6531,0.6518,0.6506,0.6497,0.6493,0.6484,0.6485,0.648,0.6486,0.6489,0.6491,0.6492,0.6491,0.6493,0.6466,0.6466,0.6466,0,0,0.6624,0.661,0.6609,0.6594,0.6584,0.6579,0.6561,0.6557,0.6553,0.653,0.6526,0.6515,0.65,0.6498,0.6497,0.649,0.6498,0.6493,0.6495,0.6494,0.6492,0.6495,0.6497,0.6467,0.6467,0.6467,0,0,0.6643,0.6633,0.6633,0.6623,0.6608,0.6596,0.6596,0.6577,0.6569,0.6564,0.6547,0.6541,0.6528,0.6518,0.6511,0.6525,0.6513,0.6523,0.6537,0.6536,0.6538,0.654,0.6544,0.6546,0.6524,0.6524,0.6524,0,0.666,0.6652,0.6635,0.6631,0.6625,0.6604,0.6604,0.6595,0.6578,0.6574,0.6567,0.6549,0.6538,0.6532,0.6536,0.6531,0.653,0.6525,0.6539,0.6541,0.6542,0.6546,0.6548,0.6525,0.6525,0.6525,0.6525,0,0.6674,0.6668,0.667,0.6655,0.6648,0.6646,0.6628,0.6623,0.6611,0.6599,0.6593,0.6579,0.6567,0.6564,0.6553,0.6557,0.6554,0.6543,0.6531,0.6547,0.655,0.6551,0.6527,0.6527,0.6526,0.6526,0,0,0.671,0.6684,0.6685,0.6677,0.6658,0.6654,0.665,0.6638,0.6635,0.6623,0.6619,0.6608,0.6598,0.659,0.6577,0.6576,0.6587,0.6565,0.6565,0.657,0.659,0.6598,0.66,0.6579,0.6579,0.6579,0.6591,0,0.6726,0.672,0.6703,0.6701,0.6696,0.6676,0.6673,0.6661,0.6649,0.6642,0.6628,0.662,0.6608,0.6603,0.6601,0.6587,0.6591,0.6585,0.6574,0.6574,0.6579,0.6602,0.6611,0.6623,0.6592,0.6593,0.6593,0,0.6745,0.6735,0.6732,0.6713,0.671,0.6708,0.6695,0.6689,0.6674,0.6665,0.6656,0.6642,0.6636,0.6624,0.6616,0.6612,0.6606,0.6598,0.6598,0.6597,0.6585,0.6601,0.6627,0.6628,0.6595,0.6595,0.6595,0,0.6771,0.6757,0.6753,0.6747,0.6725,0.6724,0.6714,0.6699,0.6692,0.6681,0.6676,0.6664,0.6658,0.6648,0.663,0.6624,0.6623,0.661,0.6615,0.6616,0.6616,0.6617,0.6641,0.6613,0.6613,0.6613,0.6613,0,0.6791,0.679,0.6765,0.6763,0.6761,0.6741,0.674,0.6728,0.6715,0.6709,0.6691,0.6686,0.6663,0.6655,0.6641,0.6636,0.6633,0.6625,0.6621,0.6627,0.6628,0.6623,0.6621,0.6613,0.6613,0.6613,0.6613,0,0.682,0.6803,0.6798,0.6777,0.6772,0.6771,0.6753,0.675,0.6736,0.673,0.6727,0.6706,0.6696,0.6677,0.6661,0.6651,0.6649,0.6642,0.6654,0.6652,0.6657,0.6657,0.668,0.6682,0.6652,0.6653,0.6653,0,0.6834,0.6833,0.6812,0.6807,0.6799,0.6791,0.6785,0.6765,0.6758,0.6741,0.6739,0.6728,0.6718,0.6702,0.6684,0.6672,0.6665,0.6674,0.6663,0.6668,0.6665,0.6665,0.6664,0.6676,0.6677,0.6677,0.6677,0,0.686,0.6852,0.6843,0.6831,0.6824,0.6814,0.6802,0.6799,0.6776,0.677,0.676,0.6752,0.6735,0.6724,0.6708,0.6697,0.6683,0.6681,0.6681,0.6687,0.6693,0.6689,0.6661,0.6681,0.668,0.668,0.668,0.668,0.6882,0.688,0.6865,0.6855,0.6845,0.6834,0.683,0.6816,0.6807,0.6793,0.6781,0.6771,0.6755,0.6733,0.6723,0.6714,0.6708,0.6709,0.6709,0.6709,0.6711,0.6695,0.6712,0.6711,0.6711,0.6711,0.6711,0,0.6907,0.6896,0.6888,0.6872,0.6865,0.6853,0.6839,0.6833,0.6825,0.6811,0.6802,0.6789,0.6777,0.6758,0.6745,0.6741,0.6734,0.6738,0.6738,0.6736,0.6718,0.6719,0.6744,0.6744,0.6744,0.6744,0.6744,0.6744,0.6919,0.6915,0.6904,0.6894,0.6883,0.6873,0.6867,0.6856,0.6845,0.6832,0.6823,0.6811,0.6795,0.6779,0.6768,0.6762,0.6758,0.6764,0.6757,0.674,0.6737,0.6734,0.6735,0.6763,0.6763,0.6775,0.6775,0.6775]}]]